Regional Weather Roundup
Issued by NWS

Home | Current Version | Previous Version | Text Only | Print | Product List | Glossary Off
Versions: 1 2 3 4 5 6 7 8 9 10 11 12 13 14 15 16 17 18 19 20 21 22 23 24 25 26 27

000
ASUS45 KBOU 170807
RWRCO

WEATHER ROUNDUP FOR COLORADO
NATIONAL WEATHER SERVICE DENVER/BOULDER CO
200 AM MDT TUE OCT 17 2017

NOTE: "FAIR" INDICATES FEW OR NO CLOUDS BELOW 12000 FEET WITH NO
SIGNIFICANT WEATHER AND/OR OBSTRUCTIONS TO VISIBILITY.

COZ001>005-013-030-031-170900-
...NORTHWEST COLORADO...

CITY           SKY/WX    TMP DP  RH WIND       PRES   REMARKS
CRAIG          FAIR      24  15  68 CALM      30.40S
HAYDEN         FAIR      36  11  35 E9        30.42R
MEEKER         FAIR      28  15  58 NE3       30.41S
RABBIT EARS PA FAIR      36   1  23 W8        30.55S
STEAMBOAT SPGS FAIR      30  11  45 CALM      30.42S
WALDEN         FAIR      23   7  50 SE8       30.45S WCI  14
$$

COZ006>008-011-170900-
...WEST CENTRAL VALLEYS...

CITY           SKY/WX    TMP DP  RH WIND       PRES   REMARKS
GRAND JUNCTION FAIR      37  13  37 E8        30.36S
MONTROSE       FAIR      35  17  47 S9        30.43R WCI  28
EAGLE          FAIR      29  14  53 SE3       30.48R
RIFLE          FAIR      32  15  49 SE7       30.41S WCI  26
DELTA          FAIR      38  15  39 N6        30.41R
NUCLA          FAIR      37  10  32 SE9       30.43R
$$

COZ017>023-064>068-170900-
...SOUTHWEST COLORADO...

CITY           SKY/WX    TMP DP  RH WIND       PRES   REMARKS
DURANGO        FAIR      34  16  47 N6        30.41R WCI  29
CORTEZ         FAIR      30  17  58 E7        30.39S WCI  23
PAGOSA SPRINGS FAIR      33  13  45 CALM      30.46S
TELLURIDE      NOT AVBL
WOLF CREEK PAS FAIR      34   3  27 S10       30.69S WCI  26
$$

COZ009-010-012-014-032>034-037-058>063-170900-
...CENTRAL COLORADO...

CITY           SKY/WX    TMP DP  RH WIND       PRES   REMARKS
ASPEN          FAIR      30  11  45 SW8       30.46F WCI  22
BUENA VISTA    FAIR      37   5  25 NW8       30.46R
COPPER MTN     FAIR      37 -17   9 W9        30.63S
BERTHOUD PASS  FAIR      30  21  69 NW23      30.62F WCI  17
COTTONWOOD PAS FAIR      48 -18   6 W10G22    30.52S
GUNNISON       FAIR      21  10  62 CALM      30.51S
KREMMLING      FAIR      28  18  64 CALM      30.49R
LEADVILLE      FAIR      26   1  34 NE7       30.53S WCI  18
MONARCH PASS   FAIR      32  -6  19 SW23      30.72F WCI  19
SALIDA         NOT AVBL
SUNLIGHT       FAIR      36  -2  20 SW9       30.61S
WILKERSON PASS FAIR      39 -13  10 W9        30.60S
$$

COZ069>075-170900-
...SAN LUIS VALLEY/SANGRE DE CRISTO MOUNTAINS...

CITY           SKY/WX    TMP DP  RH WIND       PRES   REMARKS
ALAMOSA        FAIR      27  16  63 NW3       30.44S
DEL NORTE      FAIR      41  14  33 W14       30.46S
LA VETA PASS   FAIR      39  10  30 MISG      30.62F
SAGUACHE       FAIR      34   7  32 NW3       30.46S
$$

COZ035-036-038>040-170900-
...NORTHERN COLORADO FRONT RANGE...

CITY           SKY/WX    TMP DP  RH WIND       PRES   REMARKS
DENVER INTL AP FAIR      43  19  38 SW10      30.26S
DMNS CITY PARK   N/A     47  16  29 SE9       30.27S
AURORA         PTCLDY    42  19  39 S9        30.28S
FRONT RANGE AP FAIR      39  25  56 S10       30.27F
ERIE MUNI ARPT FAIR      42  24  47 S3        30.30F
BOULDER MUN AP FAIR      48  21  34 W5        30.25F
CENTENNIAL     FAIR      45  13  27 S8        30.29S
BROOMFIELD     FAIR      46  21  36 W7        30.28S
FORT COLLINS   FAIR      43  26  51 NE7       30.26S
LONGMONT       FAIR      42  23  47 NW3       30.27S
$$

COZ041-046-047-076>085-087-088-170900-
...PIKES PEAK/PALMER DIVIDE AND SOUTHERN FOOTHILLS...

CITY           SKY/WX    TMP DP  RH WIND       PRES   REMARKS
COLO. SPRINGS  FAIR      45  15  30 N7        30.31S
A. F. ACADEMY  FAIR      33  11  39 N10       30.32F WCI  25
SCHRIEVER AFB  FAIR      50   7  17 N7        30.31S
CHEYENNE MTN   FAIR      54   9  16 W5        30.29S
ELLICOTT       FAIR     N/A N/A N/A CALM      30.29S
FALCON         FAIR      44   8  22 NW7       30.34F
FORT CARSON    FAIR      47  14  26 NW10      30.27F
LIMON          FAIR      33  22  63 NW6       30.27S WCI  28
MONUMENT HILL  FAIR      34  12  40 CALM      30.37S
CANON CITY     CLEAR     54   9  16 W15       30.27S
WALSENBURG     FAIR      52  14  22 CALM      30.30S
TRINIDAD       FAIR      42  23  46 W14       30.28R
$$

COZ042>045-048>051-090-091-170900-
...NORTHEAST COLORADO...

CITY           SKY/WX    TMP DP  RH WIND       PRES   REMARKS
GREELEY ARPT   FAIR      32  26  78 NW6       30.26R WCI  26
AKRON          FAIR      45  20  36 W6        30.22S
BURLINGTON     FAIR      43  28  55 W10       30.21R
WRAY           FAIR      37  28  70 W8        30.19R
YUMA           NOT AVBL
STERLING       FAIR      32  28  86 S5        30.20S WCI  27
HOLYOKE        FAIR      39  32  75 W7        30.18R
FORT MORGAN    FAIR      45  18  33 W9        30.24S
$$

COZ086-089-092>099-170900-
...SOUTHEAST COLORADO...

CITY           SKY/WX    TMP DP  RH WIND       PRES   REMARKS
PUEBLO         FAIR      49  20  31 SW10      30.22S
LA JUNTA       FAIR      43  31  62 W9        30.19S
LAMAR          FAIR      33  29  85 SW7       30.15F WCI  27
SPRINGFIELD      N/A     39  34  82 W6        30.17F
$$




USA.gov is the U.S. government's official web portal to all federal, state and local government web resources and services.